Regional Weather Roundup
Issued by NWS

Home | Current Version | Previous Version | Graphics & Text | Print | Product List | Glossary On
Versions: 1 2 3 4 5 6 7 8 9 10 11 12 13 14 15 16 17 18 19 20 21 22 23 24 25 26 27 28 29 30 31 32 33 34 35 36 37 38 39 40 41 42 43 44 45 46 47 48 49 50
000
ASUS45 KBOI 211310
RWRID
WEATHER ROUNDUP FOR IDAHO
NATIONAL WEATHER SERVICE BOISE ID
700 AM MDT THU AUG 21 2014

NOTE: "FAIR" INDICATES FEW OR NO CLOUDS BELOW 12000 FEET
WITH NO SIGNIFICANT WEATHER AND/OR OBSTRUCTIONS TO VISIBILITY

IDZ012-014-211400-
SOUTHWEST IDAHO


CITY           SKY/WX    TMP DP  RH WIND       PRES   REMARKS
BOISE          CLEAR     59  44  57 SE6       29.96R
CALDWELL       PTCLDY    54  37  54 CALM      29.96R
MOUNTAIN HOME  PTCLDY    64  57  79 E13       29.96R
$$

IDZ016-017-211400-
SOUTHCENTRAL IDAHO


CITY           SKY/WX    TMP DP  RH WIND       PRES   REMARKS
BURLEY         CLOUDY    57  54  89 CALM      30.00S
JEROME         CLOUDY    58  55  90 N8        30.02R
TWIN FALLS     CLOUDY    62  55  77 N7        30.01R
$$

IDZ019>023-211400-
SOUTHEAST IDAHO


CITY           SKY/WX    TMP DP  RH WIND       PRES   REMARKS
IDAHO FALLS    CLOUDY    57  55  93 S7        30.08R
POCATELLO      LGT RAIN  57  56  96 CALM      30.06S
REXBURG        CLOUDY    54  53  97 SE3       30.08R
$$

IDZ006-010-011-018-031-032-211400-
CENTRAL IDAHO MOUNTAINS


CITY           SKY/WX    TMP DP  RH WIND       PRES   REMARKS
MCCALL         PTCLDY    47  43  86 CALM      30.01R
HAILEY         PTCLDY    54  52  94 SW3       30.09S
STANLEY          N/A     40  38  93 S3        30.11R
SALMON         PTCLDY    52  52 100 SE3       30.04R
CHALLIS        CLOUDY    53  50  89 CALM      30.07R
$$

IDZ002-004-006-007-026-211400-
NORTHERN IDAHO


CITY           SKY/WX    TMP DP  RH WIND       PRES   REMARKS
LEWISTON       MOCLDY    61  44  53 CALM      29.94R
LOWELL           N/A     57  53  86 N5        29.97R
COEUR D`ALENE  MOCLDY    54  50  87 NE7       29.97S
MULLAN PASS    PTCLDY    50  45  83 CALM      30.07R
$$



USA.gov is the U.S. government's official web portal to all federal, state and local government web resources and services.